When you browse on this site, cookies collect data to enhance your experience and personalize the content and advertising you see.
Visit our Privacy Policy to learn more. By continuing to use the site, you agree to this use of cookies and data.
  • In Hungary
  • List of Countries
  • For 7 days
  • Water Temperature
  • Weather Map
  • News
  • Weather Widgets
  • user-avatar
    Login

    Hourly Weather Esslingen

    Today, 9 December, Monday

    Time Temperature Precipitation Wind Pressure Humidity
    00:00 +7°C° 0.3 mm 6 mps 724 mmHg 78%
    01:00 +7°C° 0.3 mm 6 mps 724 mmHg 77%
    02:00 +5°C° 0.1 mm 6 mps 724 mmHg 77%
    03:00 +5°C° 0.1 mm 6 mps 724 mmHg 77%
    04:00 +4°C° 0.1 mm 6 mps 723 mmHg 77%
    05:00 +4°C° 0 mm 6 mps 723 mmHg 77%
    06:00 +4°C° 0 mm 6 mps 723 mmHg 77%
    07:00 +4°C° 0 mm 6 mps 723 mmHg 76%
    08:00 +4°C° 0 mm 6 mps 723 mmHg 76%
    09:00 +4°C° 0 mm 6 mps 723 mmHg 76%
    10:00 +4°C° 0 mm 6 mps 722 mmHg 75%
    11:00 +4°C° 0.2 mm 6 mps 722 mmHg 77%
    12:00 +4°C° 0.2 mm 6 mps 722 mmHg 78%
    13:00 +4°C° 0.2 mm 6 mps 722 mmHg 79%
    14:00 +4°C° 0.1 mm 6 mps 722 mmHg 81%
    15:00 +4°C° 0.1 mm 6 mps 722 mmHg 83%
    16:00 +5°C° 0.1 mm 5 mps 722 mmHg 84%
    17:00 +3°C° 0.7 mm 5 mps 723 mmHg 86%
    18:00 +3°C° 0.7 mm 5 mps 724 mmHg 88%
    19:00 +3°C° 0.7 mm 5 mps 725 mmHg 89%
    20:00 +3°C° 0.3 mm 5 mps 727 mmHg 90%
    21:00 +2°C° 0.3 mm 5 mps 728 mmHg 91%
    22:00 +2°C° 0.3 mm 5 mps 729 mmHg 93%
    23:00 +2°C° 0.5 mm 5 mps 730 mmHg 90%

    Tomorrow, 10 December, Tuesday

    Time Temperature Precipitation Wind Pressure Humidity
    00:00 +2°C° 0.5 mm 5 mps 732 mmHg 88%
    01:00 +1°C° 0.5 mm 5 mps 733 mmHg 85%
    02:00 +1°C° 0.1 mm 4 mps 734 mmHg 86%
    03:00 0°C° 0.1 mm 4 mps 735 mmHg 87%
    04:00 -1°C° 0.1 mm 4 mps 736 mmHg 87%
    05:00 0°C° 0 mm 3 mps 737 mmHg 88%
    06:00 0°C° 0 mm 3 mps 738 mmHg 88%
    07:00 -1°C° 0 mm 3 mps 739 mmHg 88%
    08:00 0°C° 0 mm 3 mps 739 mmHg 86%
    09:00 0°C° 0 mm 3 mps 739 mmHg 85%
    10:00 +1°C° 0 mm 2 mps 740 mmHg 83%
    11:00 +2°C° 0 mm 2 mps 740 mmHg 79%
    12:00 +3°C° 0 mm 2 mps 740 mmHg 75%
    13:00 +3°C° 0 mm 2 mps 740 mmHg 70%
    14:00 +3°C° 0 mm 2 mps 739 mmHg 72%
    15:00 +3°C° 0 mm 1 mps 739 mmHg 74%
    16:00 +3°C° 0 mm 1 mps 738 mmHg 76%
    17:00 +2°C° 0 mm 1 mps 738 mmHg 78%
    18:00 +2°C° 0 mm 1 mps 738 mmHg 80%
    19:00 +1°C° 0 mm 1 mps 738 mmHg 82%
    20:00 +1°C° 0 mm 1 mps 737 mmHg 82%
    21:00 -1°C° 0 mm 2 mps 736 mmHg 83%
    22:00 -1°C° 0 mm 2 mps 736 mmHg 83%
    23:00 -1°C° 0 mm 2 mps 735 mmHg 82%

    Day after tomorrow, 11 December, Wednesday

    Time Temperature Precipitation Wind Pressure Humidity
    00:00 -1°C° 0 mm 2 mps 734 mmHg 81%
    01:00 -1°C° 0 mm 2 mps 734 mmHg 80%
    02:00 -1°C° 0 mm 2 mps 733 mmHg 78%
    03:00 -1°C° 0 mm 2 mps 732 mmHg 76%
    04:00 -2°C° 0 mm 2 mps 731 mmHg 74%
    05:00 -1°C° 0 mm 2 mps 731 mmHg 71%
    06:00 -1°C° 0 mm 2 mps 730 mmHg 68%
    07:00 +1°C° 0 mm 1 mps 730 mmHg 66%
    08:00 +2°C° 0 mm 1 mps 729 mmHg 63%
    09:00 +3°C° 0 mm 1 mps 729 mmHg 61%
    10:00 +3°C° 0 mm 1 mps 728 mmHg 58%
    11:00 +4°C° 0 mm 1 mps 728 mmHg 58%
    12:00 +5°C° 0 mm 1 mps 727 mmHg 58%
    13:00 +4°C° 0 mm 2 mps 726 mmHg 58%
    14:00 +4°C° 0 mm 2 mps 725 mmHg 61%
    15:00 +4°C° 0 mm 2 mps 725 mmHg 64%
    16:00 +3°C° 0 mm 3 mps 724 mmHg 68%
    17:00 +3°C° 0.5 mm 3 mps 725 mmHg 75%
    18:00 +3°C° 0.5 mm 4 mps 725 mmHg 83%
    19:00 +2°C° 0.5 mm 5 mps 725 mmHg 90%
    20:00 +2°C° 0.1 mm 5 mps 725 mmHg 88%
    21:00 +2°C° 0.1 mm 5 mps 725 mmHg 86%
    22:00 +2°C° 0.1 mm 5 mps 725 mmHg 85%
    23:00 +1°C° 0 mm 4 mps 725 mmHg 85%

    12 December, Thursday

    Time Temperature Precipitation Wind Pressure Humidity
    00:00 0°C° 0 mm 4 mps 724 mmHg 85%
    01:00 +1°C° 0 mm 3 mps 724 mmHg 84%
    02:00 0°C° 0 mm 4 mps 724 mmHg 85%
    03:00 0°C° 0 mm 4 mps 724 mmHg 86%
    04:00 0°C° 0 mm 4 mps 724 mmHg 87%
    05:00 0°C° 0.3 mm 5 mps 724 mmHg 89%
    06:00 -2°C° 0.3 mm 6 mps 725 mmHg 92%
    07:00 -2°C° 0.3 mm 7 mps 725 mmHg 94%
    08:00 -2°C° 0.2 mm 6 mps 726 mmHg 90%
    09:00 -1°C° 0.2 mm 6 mps 726 mmHg 86%
    10:00 0°C° 0.2 mm 5 mps 727 mmHg 82%
    11:00 0°C° 0 mm 5 mps 727 mmHg 79%
    12:00 +1°C° 0 mm 5 mps 727 mmHg 76%
    13:00 +1°C° 0 mm 5 mps 727 mmHg 73%
    14:00 +1°C° 0 mm 5 mps 726 mmHg 75%
    15:00 0°C° 0 mm 4 mps 726 mmHg 77%
    16:00 +1°C° 0 mm 3 mps 725 mmHg 79%
    17:00 0°C° 0 mm 3 mps 724 mmHg 79%
    18:00 0°C° 0 mm 3 mps 723 mmHg 80%
    19:00 -1°C° 0 mm 3 mps 722 mmHg 80%
    20:00 -1°C° 0 mm 4 mps 720 mmHg 76%
    21:00 0°C° 0 mm 4 mps 719 mmHg 72%
    22:00 +1°C° 0 mm 5 mps 717 mmHg 68%
    23:00 +1°C° 0.5 mm 6 mps 715 mmHg 73%

    13 December, Friday

    Time Temperature Precipitation Wind Pressure Humidity
    00:00 0°C° 0.5 mm 7 mps 713 mmHg 78%
    01:00 0°C° 0.5 mm 8 mps 711 mmHg 83%
    02:00 +1°C° 1.9 mm 8 mps 711 mmHg 86%
    03:00 +2°C° 1.9 mm 7 mps 710 mmHg 88%
    04:00 +3°C° 1.9 mm 7 mps 710 mmHg 91%
    05:00 +2°C° 0.8 mm 6 mps 709 mmHg 91%
    06:00 +2°C° 0.8 mm 6 mps 709 mmHg 91%
    07:00 +2°C° 0.8 mm 6 mps 708 mmHg 90%
    08:00 +2°C° 0.5 mm 6 mps 709 mmHg 89%
    09:00 +2°C° 0.5 mm 6 mps 710 mmHg 88%
    10:00 +1°C° 0.5 mm 6 mps 710 mmHg 87%
    11:00 +1°C° 0.3 mm 6 mps 711 mmHg 87%
    12:00 +1°C° 0.3 mm 6 mps 711 mmHg 87%
    13:00 0°C° 0.3 mm 7 mps 711 mmHg 87%
    14:00 0°C° 0.1 mm 7 mps 712 mmHg 84%
    15:00 0°C° 0.1 mm 7 mps 713 mmHg 82%
    16:00 0°C° 0.1 mm 7 mps 713 mmHg 80%
    17:00 0°C° 0.1 mm 8 mps 714 mmHg 82%
    18:00 0°C° 0.1 mm 8 mps 715 mmHg 85%
    19:00 0°C° 0.1 mm 8 mps 716 mmHg 87%
    20:00 0°C° 0.1 mm 8 mps 716 mmHg 86%
    21:00 0°C° 0.1 mm 8 mps 717 mmHg 85%
    22:00 0°C° 0.1 mm 8 mps 717 mmHg 84%
    23:00 0°C° 0.1 mm 7 mps 717 mmHg 86%

    14 December, Saturday

    Time Temperature Precipitation Wind Pressure Humidity
    00:00 0°C° 0.1 mm 7 mps 717 mmHg 88%
    01:00 +1°C° 0.1 mm 6 mps 717 mmHg 90%
    02:00 +1°C° 0.2 mm 6 mps 717 mmHg 90%
    03:00 0°C° 0.2 mm 7 mps 716 mmHg 90%
    04:00 0°C° 0.2 mm 7 mps 716 mmHg 90%
    05:00 +2°C° 0.3 mm 6 mps 717 mmHg 91%
    06:00 +2°C° 0.3 mm 5 mps 717 mmHg 92%
    07:00 +2°C° 0.3 mm 5 mps 717 mmHg 93%
    08:00 +2°C° 0.3 mm 5 mps 718 mmHg 90%
    09:00 +3°C° 0.3 mm 6 mps 719 mmHg 87%
    10:00 +3°C° 0.3 mm 7 mps 721 mmHg 84%
    11:00 +3°C° 0.1 mm 7 mps 722 mmHg 80%
    12:00 +4°C° 0.1 mm 7 mps 722 mmHg 77%
    13:00 +4°C° 0.1 mm 7 mps 723 mmHg 74%
    14:00 +4°C° 0 mm 6 mps 724 mmHg 77%
    15:00 +5°C° 0 mm 5 mps 724 mmHg 80%
    16:00 +5°C° 0 mm 4 mps 725 mmHg 83%
    17:00 +5°C° 0.1 mm 4 mps 725 mmHg 85%
    18:00 +5°C° 0.1 mm 4 mps 725 mmHg 87%
    19:00 +5°C° 0.1 mm 4 mps 725 mmHg 89%
    20:00 +7°C° 0.2 mm 3 mps 725 mmHg 90%
    21:00 +7°C° 0.2 mm 3 mps 725 mmHg 92%
    22:00 +7°C° 0.2 mm 3 mps 726 mmHg 93%
    23:00 +7°C° 0.8 mm 4 mps 726 mmHg 92%
    Show more